Location: Gull Harbor
(47.1000°N, 122.9000°W)
Time: 11:46:47
(UTC-07:00)

Mayak - Visible Passes

Search period start: 21 July 2017 00:00
Search period end: 31 July 2017 00:00
Orbit: 586 x 605 km, 97.6° (Epoch: 20 July)

Date Brightness Start Highest point End Pass type
(mag) Time Alt. Az. Time Alt. Az. Time Alt. Az.
21 Jul -1.4 01:06:02 10° NNE 01:10:17 82° ESE 01:10:32 76° SSE visible
21 Jul 1.2 02:43:35 10° NW 02:45:18 12° WNW 02:47:01 10° W visible
21 Jul 1.1 23:42:50 10° ENE 23:43:45 11° E 23:43:45 11° E visible
22 Jul -1.3 01:15:52 10° N 01:20:06 79° WNW 01:20:24 73° SW visible
22 Jul 0.9 23:51:39 10° ENE 23:53:36 14° E 23:53:36 14° E visible
23 Jul -1.1 01:25:43 10° N 01:29:53 62° WNW 01:30:16 59° WSW visible
24 Jul 0.7 00:00:56 10° NE 00:03:28 17° E 00:03:28 17° E visible
24 Jul -0.7 01:35:37 10° N 01:39:41 49° WNW 01:40:07 46° W visible
25 Jul 0.4 00:10:23 10° NE 00:13:19 21° E 00:13:19 21° E visible
25 Jul -0.4 01:45:32 10° N 01:49:26 39° WNW 01:49:59 37° W visible
26 Jul 0.2 00:19:56 10° NE 00:23:11 26° E 00:23:11 26° E visible
26 Jul 0.0 01:55:29 10° N 01:59:11 31° WNW 01:59:50 29° W visible
27 Jul -0.2 00:29:34 10° NNE 00:33:02 33° E 00:33:02 33° E visible
27 Jul 0.3 02:05:28 10° N 02:08:56 25° WNW 02:09:41 24° W visible
28 Jul -0.5 00:39:15 10° NNE 00:42:52 41° E 00:42:52 41° E visible
28 Jul 0.6 02:15:31 10° NNW 02:18:40 21° WNW 02:19:32 19° W visible
29 Jul -0.8 00:48:59 10° NNE 00:52:43 52° ENE 00:52:43 52° ENE visible
29 Jul 0.9 02:25:38 10° NNW 02:28:21 17° WNW 02:29:22 16° W visible
30 Jul -1.1 00:58:44 10° NNE 01:02:33 65° ENE 01:02:33 65° ENE visible
30 Jul 1.1 02:35:53 10° NNW 02:38:03 14° WNW 02:39:13 13° WNW visible
